Location: Armidale
(30.5016°S, 151.6662°E)
Time: 06:43:02
(UTC+10:00)

DX 1 - Visible Passes

Search period start: 24 July 2021 00:00
Search period end: 03 August 2021 00:00
Orbit: 619 x 629 km, 98.5° (Epoch: 23 July)

Date Brightness Start Highest point End Pass type
(mag) Time Alt. Az. Time Alt. Az. Time Alt. Az.
24 Jul ? 18:44:24 10° NNE 18:48:45 82° ESE 18:53:10 10° S visible
25 Jul ? 19:03:05 10° N 19:07:22 58° WNW 19:11:42 10° SSW visible
26 Jul ? 17:47:35 10° ENE 17:50:13 16° ESE 17:52:53 10° SSE visible
26 Jul ? 19:22:05 10° NNW 19:26:01 34° W 19:30:01 10° SSW visible
27 Jul ? 18:05:06 10° NE 18:08:41 25° ESE 18:12:19 10° SSE visible
27 Jul ? 19:41:29 10° NW 19:44:43 20° W 19:48:00 10° SW visible
28 Jul ? 18:23:06 10° NE 18:27:13 42° ESE 18:31:21 10° S visible
28 Jul ? 20:01:43 10° WNW 20:03:28 12° W 20:05:13 10° WSW visible
29 Jul ? 18:41:27 10° NNE 18:45:46 72° ESE 18:50:08 10° S visible
30 Jul ? 19:00:03 10° N 19:04:22 66° WNW 19:08:44 10° SSW visible
31 Jul ? 17:44:59 10° E 17:47:17 14° ESE 17:49:34 10° SE visible
31 Jul ? 19:18:58 10° NNW 19:23:00 38° W 19:27:06 10° SSW visible
01 Aug ? 18:02:19 10° ENE 18:05:44 23° ESE 18:09:09 10° SSE visible
01 Aug ? 19:38:15 10° NNW 19:41:42 23° W 19:45:11 10° SW visible
02 Aug ? 18:20:14 10° NE 18:24:13 37° ESE 18:28:15 10° S visible
02 Aug ? 19:58:11 10° NW 20:00:25 14° W 20:02:41 10° WSW visible
